This is the latest recevied weather packets stored in our database for station/object DC1MPP-9. If no packets are shown the sender has not sent any weather packets the latest 10 day(s).
| Time | Temp. | Humidity | Pressure | Rain* | Wind** | Luminosity | Snow |
|---|---|---|---|---|---|---|---|
| 1777545421 | 12.78° C | 26% | 969 hPa | - | - | - | - |
| 1777545180 | 12.78° C | 27% | 969 hPa | - | - | - | - |
| 1777544939 | 12.78° C | 29% | 969 hPa | - | - | - | - |
| 1777544697 | 12.22° C | 28% | 969 hPa | - | - | - | - |
| 1777544456 | 12.78° C | 30% | 969 hPa | - | - | - | - |
| 1777544215 | 12.22° C | 30% | 969 hPa | - | - | - | - |
| 1777543733 | 12.22° C | 29% | 969 hPa | - | - | - | - |
| 1777543251 | 11.67° C | 30% | 969 hPa | - | - | - | - |
| 1777543010 | 11.67° C | 31% | 969 hPa | - | - | - | - |
| 1777542528 | 12.22° C | 29% | 969 hPa | - | - | - | - |
| 1777542046 | 12.22° C | 30% | 969 hPa | - | - | - | - |
| 1777541805 | 11.67° C | 31% | 969 hPa | - | - | - | - |
| 1777541323 | 11.67° C | 32% | 969 hPa | - | - | - | - |
| 1777541082 | 11.67° C | 32% | 969 hPa | - | - | - | - |
| 1777540841 | 11.67° C | 32% | 969 hPa | - | - | - | - |
| 1777540600 | 11.11° C | 32% | 969 hPa | - | - | - | - |
| 1777540359 | 12.22° C | 35% | 969 hPa | - | - | - | - |
| 1777540118 | 11.67° C | 33% | 969 hPa | - | - | - | - |
| 1777539877 | 11.11° C | 32% | 969 hPa | - | - | - | - |
| 1777539636 | 11.67° C | 34% | 969 hPa | - | - | - | - |
| 1777539395 | 11.11° C | 36% | 969 hPa | - | - | - | - |
| 1777539154 | 10.56° C | 35% | 969 hPa | - | - | - | - |
| 1777538913 | 10.56° C | 33% | 969 hPa | - | - | - | - |
| 1777538430 | 10.56° C | 33% | 969 hPa | - | - | - | - |
| 1777538189 | 10.56° C | 36% | 969 hPa | - | - | - | - |
* Rain since midnight (hover to see other rain measurements)
** Current wind speed in m/s (hover to see current wind gust speed)